Home   Weather   Gomel   Past weeks

Flag for Belarus Past Weather in Gomel, Belarus — Yesterday and Last 2 Weeks

Now
32 °F

Snow flurries. Ice fog.


Feels Like: 22 °F
Forecast: 11 / 19 °F
Wind: 15 mph from Southwest

Location: Gomel'

Current Time: Dec 6, 2016 at 8:51:28 am

Latest Report: Dec 6, 2016 at 8:30 am


Visibility: 3 mi

Pressure: 29.80 "Hg

Humidity: 93%

Dew Point: 30 °F

Location of GomelLocation

Past Weather in Gomel — Graph

°F

Gomel Temperature Yesterday

Maximum temperature yesterday: 32 °F (at 9:00 pm)
Minimum temperature yesterday: 10 °F (at 5:00 am)
Average temperature yesterday: 21 °F

High & Low Weather Summary for the Past Weeks

 TemperatureHumidityPressure
High37 °F (Nov 26, 3:00 pm)100% (Nov 25, 5:00 am)30.60 "Hg (Nov 25, 5:00 am)
Low10 °F (Nov 30, 6:00 am)60% (Nov 26, 7:00 pm)29.42 "Hg (Nov 28, 4:00 am)
Average28 °F88%29.99 "Hg
* Reported Nov 21 7:00 am — Dec 6 7:30 am, Gomel, Weather by CustomWeather, © 2016

Note: Actual official high and low records may vary slightly from our data, if they occured in-between our weather recording intervals... More about our weather records

Advertising

Gomel Weather History for the Previous 24 Hours

Scroll right to see more
 ConditionsComfort  
Time TempWeatherWind HumidityBarometerVisibility
7:30 am
Tue, Dec 6
32 °FMostly cloudy.15 mph93%29.80 "Hg4 mi
7:00 am32 °FMostly cloudy.15 mph93%29.80 "HgN/A
6:30 am32 °FSnow flurries. Mostly cloudy.15 mph100%29.80 "Hg3 mi
6:00 am32 °FSnow flurries. Mostly cloudy.15 mph100%29.80 "Hg1 mi
5:00 am32 °FSnow showers. Mostly cloudy.15 mph100%29.80 "Hg1 mi
4:00 am32 °FSnow showers. Mostly cloudy.15 mph100%29.80 "Hg1 mi
3:00 am32 °FSnow flurries. Overcast.15 mph93%29.80 "Hg3 mi
2:00 am32 °FSnow flurries. Overcast.15 mph93%29.83 "Hg3 mi
1:00 am32 °FOvercast.17 mph87%29.83 "HgN/A
12:00 am32 °FOvercast.17 mph87%29.83 "HgN/A
11:00 pm
Mon, Dec 5
32 °FOvercast.20 mph87%29.86 "HgN/A
10:00 pm32 °FOvercast.20 mph87%29.89 "HgN/A
9:00 pm32 °FOvercast.20 mph87%29.89 "HgN/A
8:30 pm30 °FOvercast.20 mph93%29.89 "Hg6 mi
8:00 pm30 °FOvercast.20 mph93%29.92 "Hg6 mi
7:30 pm28 °FOvercast.20 mph100%29.92 "Hg6 mi
7:00 pm28 °FOvercast.20 mph100%29.95 "Hg6 mi
6:30 pm28 °FOvercast.15 mph86%29.95 "Hg5 mi
6:00 pm28 °FLow clouds.17 mph86%29.95 "Hg5 mi
5:30 pm25 °FLow clouds.13 mph93%29.98 "Hg5 mi
5:00 pm25 °FSnow flurries. Overcast.13 mph93%29.98 "Hg5 mi
4:30 pm25 °FSnow flurries. Overcast.13 mph93%30.01 "Hg3 mi
4:00 pm25 °FLow clouds.15 mph93%30.01 "Hg6 mi
3:30 pm25 °FLow clouds.17 mph93%30.04 "Hg5 mi
3:00 pm25 °FLow clouds.15 mph93%30.04 "Hg6 mi
2:30 pm23 °FLow clouds.15 mph93%30.07 "Hg6 mi
2:00 pm23 °FSnow flurries. Overcast.15 mph93%30.07 "Hg3 mi
1:30 pm23 °FSnow flurries. Mostly cloudy.15 mph93%30.07 "Hg3 mi
1:00 pm23 °FSnow flurries. Partly sunny.15 mph93%30.09 "Hg3 mi
12:30 pm21 °FSnow flurries. Partly sunny.15 mph93%30.12 "Hg2 mi
12:00 pm21 °FSnow flurries. Mostly cloudy.15 mph93%30.15 "Hg3 mi
11:30 am23 °FSnow flurries. Partly sunny.13 mph93%30.15 "Hg4 mi
11:00 am23 °FSnow flurries. Partly sunny.13 mph93%30.18 "Hg4 mi
10:30 am19 °FSnow flurries. Partly sunny.13 mph86%30.21 "Hg4 mi
10:00 am19 °FSnow flurries. Broken clouds.13 mph86%30.21 "Hg5 mi
9:30 am16 °FSnow flurries. Partly cloudy.13 mph93%30.21 "Hg4 mi
9:00 am16 °FSnow flurries. Partly cloudy.13 mph93%30.24 "Hg5 mi
8:30 am14 °FClear.13 mph92%30.24 "Hg5 mi
8:00 am14 °FClear.13 mph92%30.27 "Hg5 mi
Weather by CustomWeather, © 2016

See weather overviewHow to use our weather pages